Location: Cabeza de los Veneras
(40.2000°N, 5.2000°W)
Time: 23:08:00
(UTC+00:00)

Cosmos 1536 Rocket - Visible Passes

Search period start: 18 November 2025 00:00
Search period end: 28 November 2025 00:00
Orbit: 600 x 624 km, 82.5° (Epoch: 18 November)

Date Brightness Start Highest point End Pass type
(mag) Time Alt. Az. Time Alt. Az. Time Alt. Az.
18 Nov 3.7 18:47:27 10° NNW 18:51:52 73° W 18:56:13 10° S visible
19 Nov 4.9 19:02:50 10° NNW 19:06:57 39° W 19:11:00 10° SSW visible
20 Nov 7.1 05:58:14 10° E 05:59:06 11° E 06:00:00 10° ENE visible
20 Nov 4.4 17:40:33 10° NNE 17:44:25 29° ENE 17:48:13 10° SE visible
20 Nov 6.0 19:18:31 10° NW 19:21:56 22° W 19:25:19 10° SW visible
21 Nov 6.5 06:10:55 10° SE 06:14:00 19° E 06:17:07 10° NE visible
21 Nov 3.7 17:55:21 10° N 17:59:40 51° E 18:03:55 10° SSE visible
21 Nov 6.8 19:34:58 10° WNW 19:36:51 13° W 19:38:44 10° WSW visible
22 Nov 5.6 06:25:02 10° SSE 06:28:58 33° E 06:32:57 10° NNE visible
22 Nov 3.5 18:10:25 10° N 18:14:51 86° W 18:19:12 10° S visible
23 Nov 4.3 06:39:41 10° S 06:44:02 60° E 06:48:24 10° NNE visible
23 Nov 4.7 18:25:43 10° NNW 18:29:56 46° W 18:34:06 10° SSW visible
24 Nov 5.8 18:41:19 10° NNW 18:44:57 26° W 18:48:33 10° SW visible
25 Nov 6.6 05:34:18 10° SE 05:37:02 16° E 05:39:46 10° NE visible
25 Nov 6.7 18:57:26 10° NW 18:59:52 15° W 19:02:19 10° WSW visible
26 Nov 5.8 05:48:13 10° SSE 05:51:59 28° E 05:55:46 10° NNE visible
26 Nov 3.5 17:33:23 10° N 17:37:48 80° E 17:42:08 10° S visible
27 Nov 4.6 06:02:44 10° SSE 06:07:00 50° E 06:11:19 10° NNE visible
27 Nov 4.4 17:48:37 10° NNW 17:52:54 55° W 17:57:08 10° S visible
